This demonstration page uses our WeatherBlox Daily Observations layout. Learn more.

Left ArrowRight Arrow

Hourly Observations for January 1, 2016

Temp ( °F °C ) Dew Point ( °F °C ) Humidity (%) Winds ( mph kmh ) Pressure ( in mb ) Visibility ( mi km ) Precip ( " mm )
12:53 am 00:53 Clear 44 6.7 37 2.8 76 76 WNW 10 17 30.19 1022 10 16 0.00 0.00
1:53 am 01:53 Clear 42 5.6 35 1.7 76 76 WNW 9 15 30.17 1022 10 16 0.00 0.00
2:53 am 02:53 Clear 42 5.6 35 1.7 76 76 WNW 9 15 30.17 1022 10 16 0.00 0.00
3:53 am 03:53 Clear 41 5 35 1.7 79 79 NW 9 15 30.16 1021 10 16 0.00 0.00
4:53 am 04:53 Clear 41 5 34 1.1 76 76 NNW 10 17 30.16 1021 10 16 0.00 0.00
5:53 am 05:53 Clear 41 5 34 1.1 76 76 NNW 12 19 30.18 1022 10 16 0.00 0.00
6:53 am 06:53 Clear 40 4.4 34 1.1 79 79 NNW 6 9 30.19 1022 10 16 0.00 0.00
7:53 am 07:53 Sunny 40 4.4 33 0.6 77 77 NNW 8 13 30.22 1023 10 16 0.00 0.00
8:53 am 08:53 Sunny 40 4.4 33 0.6 77 77 VRB 7 11 30.24 1024 10 16 0.00 0.00
9:53 am 09:53 Sunny 42 5.6 33 0.6 71 71 NNW 10 17 30.24 1024 10 16 0.00 0.00
10:53 am 10:53 Sunny 44 6.7 33 0.6 65 65 WNW 7 11 30.23 1024 10 16 0.00 0.00
11:53 am 11:53 Mostly Sunny 45 7.2 34 1.1 66 66 WNW 8 13 30.24 1024 10 16 0.00 0.00
12:53 pm 12:53 Mostly Cloudy 45 7.2 34 1.1 66 66 NNW 9 15 30.21 1023 10 16 0.00 0.00
1:53 pm 13:53 Sunny 45 7.2 33 0.6 63 63 NW 10 17 30.19 1022 10 16 0.00 0.00
2:53 pm 14:53 Sunny 45 7.2 32 0 61 61 NNW 12 19 30.19 1022 10 16 0.00 0.00
3:53 pm 15:53 Sunny 46 7.8 33 0.6 61 61 NW 7 11 30.20 1023 10 16 0.00 0.00
4:53 pm 16:53 Mostly Sunny 45 7.2 31 -0.6 58 58 NNW 12 19 30.21 1023 10 16 0.00 0.00
5:53 pm 17:53 Clear 44 6.7 29 -1.7 55 55 NW 9 15 30.23 1024 10 16 0.00 0.00
6:53 pm 18:53 Clear 43 6.1 28 -2.2 56 56 NW 10 17 30.24 1024 10 16 0.00 0.00
7:53 pm 19:53 Clear 43 6.1 28 -2.2 56 56 NW 12 19 30.27 1025 10 16 0.00 0.00
8:53 pm 20:53 Clear 42 5.6 27 -2.8 55 55 NW 10 17 30.28 1025 10 16 0.00 0.00
9:53 pm 21:53 Clear 41 5 27 -2.8 57 57 NW 13 20 30.29 1026 10 16 0.00 0.00
10:53 pm 22:53 Clear 40 4.4 27 -2.8 60 60 NW 9 15 30.28 1026 10 16 0.00 0.00
11:53 pm 23:53 Clear 39 3.9 27 -2.8 62 62 NNW 13 20 30.29 1026 10 16 0.00 0.00

Powered by AerisWeather